Location: Fort Worth, Tx
(32.7431°N, 97.3695°W)
Time: 02:47:32
(UTC-04:00)

ISS - Visible Passes

Search period start: 24 April 2018 00:00
Search period end: 04 May 2018 00:00
Orbit: 403 x 406 km, 51.6° (Epoch: 24 April)

Date Brightness Start Highest point End Pass type
(mag) Time Alt. Az. Time Alt. Az. Time Alt. Az.
27 Apr -1.3 07:17:58 10° S 07:20:18 18° SE 07:22:40 10° E visible
29 Apr -3.3 07:08:49 10° SSW 07:12:00 55° SE 07:15:12 10° NE visible
30 Apr -2.0 06:18:21 18° SSE 06:19:48 24° SE 06:22:30 10° ENE visible
01 May -0.8 05:28:22 11° ESE 05:28:22 11° ESE 05:28:44 10° ESE visible
01 May -3.3 07:01:01 13° WSW 07:03:47 46° NW 07:06:56 10° NE visible
02 May -3.9 06:10:55 58° SSW 06:11:27 76° SE 06:14:42 10° NE visible
03 May -1.4 05:20:44 20° E 05:20:44 20° E 05:22:08 10° ENE visible
03 May -1.9 06:53:23 11° W 06:55:42 19° NW 06:58:08 10° NNE visible
